Wind_Speed
19 17 17 21 20 21 24 27 25 25 28 29 27 22 23 23 22 18 20 19 16 16 18 17 15 18 21 19 17 21 26 31 31 32 36 41 45 46 46 46 50 53 55 57
17 16 23 23 23 25 25 25 24 22 27 28 24 22 22 22 18 18 24 23 22 23 25 23 20 25 26 19 17 24 29 39 38 38 41 44 46 45 46 51 54 55 55 56
19 22 21 21 23 25 26 27 26 25 27 30 27 22 20 23 20 20 28 30 27 27 29 25 23 28 30 28 27 30 36 42 39 42 45 46 43 46 53 56 56 57 58 58
23 23 23 24 21 23 23 26 25 23 22 28 27 22 20 23 19 25 32 33 33 35 37 31 27 30 32 30 33 36 43 42 42 45 46 43 46 54 56 58 58 58 59 58
21 24 26 21 21 24 21 27 27 25 22 24 27 29 27 26 26 31 33 33 36 41 44 42 36 33 34 34 36 38 43 42 47 48 47 47 53 56 57 59 59 59 58 57
26 27 24 22 22 25 23 26 25 25 24 23 23 32 37 36 35 36 37 38 37 37 41 40 40 37 41 39 37 41 41 44 50 50 49 50 56 59 59 57 58 56 57 60
25 25 20 20 21 21 19 21 23 24 23 22 22 28 33 37 36 37 37 37 35 32 30 27 34 35 39 41 40 41 37 42 49 48 48 53 59 60 57 56 54 55 57 62
25 25 22 24 22 25 26 25 26 24 22 22 24 28 31 32 33 35 34 34 33 30 27 28 31 28 39 42 52 31 41 41 42 47 53 57 61 58 55 54 54 57 61 66
24 21 24 24 25 28 25 26 24 25 25 24 24 26 28 28 29 32 32 31 31 32 33 30 29 36 43 42 51 44 42 37 43 48 53 58 56 52 52 53 57 62 66 70
30 27 28 24 28 31 28 24 26 26 26 27 28 26 27 28 29 31 33 31 33 37 38 36 33 38 46 50 51 42 34 33 39 46 51 50 49 50 51 55 59 64 69 66
30 30 27 27 31 32 29 27 29 29 29 29 29 30 30 28 29 33 36 37 39 40 40 37 39 41 54 41 33 31 28 30 37 46 47 47 48 49 53 57 61 67 63 59
29 30 27 31 34 35 30 31 30 30 29 30 29 32 32 33 36 36 36 38 40 42 46 45 46 51 50 30 36 29 28 30 40 47 46 45 46 50 55 59 64 61 56 38
30 31 27 30 35 39 38 33 32 34 33 30 31 33 35 35 34 36 40 42 43 45 49 45 48 52 48 57 40 32 32 36 41 45 42 42 47 51 57 61 60 52 37 32
32 34 33 29 28 35 37 34 35 33 33 35 33 35 38 37 36 39 35 37 42 44 45 44 44 45 49 36 37 33 36 39 41 39 39 43 48 53 58 61 50 37 30 29
34 30 33 33 31 31 36 40 41 29 33 38 33 34 32 33 31 29 32 36 38 41 41 44 43 41 36 32 31 33 40 38 35 36 38 43 49 55 61 54 45 28 27 25
43 40 38 37 40 32 34 38 30 29 36 36 37 32 25 25 23 27 30 33 34 34 35 36 38 30 37 33 38 40 34 27 31 33 38 45 51 57 58 47 26 22 23 23
44 39 34 32 30 30 37 38 34 34 37 32 32 29 24 23 26 26 27 30 35 35 34 32 34 33 33 33 32 32 24 24 28 32 40 46 53 58 52 31 20 20 19 19
39 40 43 45 40 43 42 39 35 35 33 29 29 28 28 27 30 31 30 32 34 37 30 32 26 27 31 18 22 22 22 22 27 33 41 47 52 52 42 28 19 18 16 18
33 35 37 38 32 35 37 32 31 29 28 28 29 30 28 30 33 31 31 33 34 35 34 34 31 30 26 20 20 20 20 22 27 33 40 45 49 45 33 22 15 15 16 20
32 32 34 36 33 34 32 31 29 29 29 26 27 27 30 32 32 32 34 33 35 34 38 28 19 16 23 22 18 18 18 22 27 33 39 44 44 37 26 17 15 16 18 23
34 36 36 37 38 37 33 30 29 28 28 30 29 29 30 31 33 34 34 33 35 32 26 25 13 22 19 17 17 16 18 22 27 32 38 42 40 31 22 18 17 18 20 20
36 38 39 38 38 39 34 33 30 31 31 33 33 30 31 32 34 34 34 33 33 30 28 26 20 17 16 18 16 16 19 22 27 31 35 40 37 28 20 19 16 16 17 17
36 39 40 42 40 37 35 33 33 32 29 29 25 28 28 31 33 33 33 32 30 29 31 22 21 13 16 16 14 16 18 21 26 30 33 36 31 28 20 17 15 15 16 16
39 39 41 40 40 38 35 34 31 29 29 33 37 40 37 33 31 31 30 31 28 28 27 20 24 19 14 13 14 15 17 21 25 28 31 34 28 23 20 15 15 15 16 18
42 41 41 41 39 35 32 30 30 31 34 36 35 30 31 35 34 31 28 28 26 27 24 24 21 19 16 14 13 14 16 20 24 27 29 31 28 24 19 16 15 14 15 16
41 40 41 41 39 36 34 32 30 31 32 31 30 33 36 33 31 28 26 25 24 25 24 26 26 22 12 13 12 15 18 21 23 25 27 30 28 25 21 20 19 16 16 17
Wind_Direction
238 234 231 226 224 223 226 225 224 229 232 239 237 221 239 250 265 289 300 309 313 314 318 314 310 317 308 317 327 328 336 329 325 318 309 303 308 312 312 315 313 312 311 309
235 229 231 233 227 228 230 237 238 238 250 263 257 250 249 258 273 296 299 310 317 317 319 313 317 311 314 312 317 324 323 324 321 316 313 312 314 315 316 314 314 311 309 310
229 231 238 243 241 237 237 236 235 233 242 256 259 259 271 277 293 299 291 300 309 313 310 307 300 303 307 312 314 321 321 319 320 319 318 316 318 318 317 315 312 312 315 316
235 236 231 232 237 243 246 249 246 246 244 245 257 264 255 261 275 280 280 291 300 305 304 297 296 297 300 313 316 315 314 319 320 320 317 316 317 320 318 316 316 317 315 314
239 237 237 238 237 245 246 244 250 253 248 245 248 256 260 264 262 264 275 284 288 288 290 293 292 290 295 305 313 312 309 317 319 317 315 314 314 319 317 317 317 316 313 311
237 245 243 241 242 246 244 245 249 253 260 261 256 254 256 254 265 271 272 276 279 282 284 281 280 287 291 297 300 305 310 316 313 312 311 309 315 318 317 315 314 311 311 312
236 244 242 243 244 251 250 240 246 255 257 261 257 257 259 261 265 266 270 272 279 283 286 272 273 280 285 285 293 298 298 304 307 304 305 312 317 317 314 311 310 311 312 313
228 231 236 236 237 238 242 245 248 255 258 258 260 258 263 267 271 273 276 278 281 278 269 279 290 279 277 278 293 279 293 301 301 300 309 312 313 310 309 310 312 315 315 314
237 233 240 244 243 247 251 254 258 259 260 261 265 270 272 272 273 274 278 280 285 287 290 293 289 289 292 286 287 279 281 292 305 309 306 303 305 310 312 315 316 316 314 312
239 234 234 234 240 247 249 252 249 258 262 263 270 274 277 281 283 284 282 281 283 283 285 288 288 284 277 270 279 271 281 299 302 302 307 311 312 314 316 316 316 315 314 314
236 237 230 229 233 238 247 253 253 262 266 273 278 283 288 289 284 282 282 282 287 291 292 291 289 281 287 281 274 285 296 290 299 314 313 314 316 316 315 316 317 316 316 317
234 236 211 225 225 237 240 245 251 257 268 273 275 286 291 289 286 293 294 289 290 295 292 292 288 290 279 268 270 275 275 281 307 312 312 314 314 316 318 318 318 318 317 320
233 238 225 220 228 237 245 249 245 252 272 276 284 292 292 295 290 295 291 287 286 286 286 291 288 288 275 291 272 280 279 301 308 308 310 313 317 320 319 320 320 320 318 320
243 241 246 245 239 242 241 246 249 258 274 284 287 289 289 289 287 295 299 294 298 301 296 295 289 292 292 294 290 292 294 299 309 307 312 316 320 319 320 323 322 318 321 322
248 247 248 247 248 246 248 251 250 256 279 279 287 287 283 279 284 290 295 299 303 305 301 298 299 292 286 294 295 299 297 301 305 308 315 319 318 322 325 326 319 312 318 324
253 251 253 244 251 244 261 264 243 268 271 272 279 279 280 280 287 296 305 312 317 306 307 285 294 290 289 286 290 297 300 301 304 311 319 318 324 325 328 326 318 313 318 324
245 249 256 251 259 263 259 265 270 264 261 266 270 275 279 283 288 296 305 314 320 317 308 292 306 289 269 286 290 294 290 303 309 319 320 324 326 329 331 328 318 317 323 331
248 248 249 253 257 258 264 265 265 261 264 266 268 274 280 284 286 294 307 313 319 323 311 301 309 290 275 266 285 281 296 311 321 324 323 327 327 334 335 332 318 324 329 344
246 252 257 258 252 248 248 251 253 258 264 268 274 276 276 275 279 289 301 313 318 319 313 297 298 289 290 285 276 291 306 322 319 323 322 327 333 335 335 331 333 332 336 338
250 247 251 255 251 241 238 244 250 258 263 269 270 273 272 275 281 290 299 310 316 318 314 299 293 281 281 285 283 296 313 313 319 318 326 327 337 334 333 333 348 345 340 336
248 250 249 252 258 251 247 249 253 256 266 269 274 277 276 279 284 289 296 308 315 314 309 316 278 271 274 277 286 304 310 308 315 326 326 329 337 335 335 332 340 341 342 346
241 248 251 251 252 255 260 259 262 264 268 271 271 273 278 278 281 288 293 305 312 308 306 291 255 280 284 276 287 297 297 314 320 325 326 332 338 338 340 338 355 1 358 354
243 247 251 254 256 257 259 264 269 273 276 272 271 274 281 283 281 286 292 302 308 308 303 272 270 267 272 280 295 299 308 317 322 323 327 335 340 338 342 343 353 354 353 348
242 244 248 251 254 259 262 266 270 271 270 264 283 287 283 282 282 282 290 299 303 307 304 256 251 295 284 283 291 300 313 316 320 322 326 338 344 338 335 337 336 343 341 338
245 246 247 249 251 254 258 261 264 265 267 272 278 279 287 286 281 281 289 295 299 302 275 278 273 281 291 281 287 297 306 316 317 319 329 342 343 341 332 328 325 330 330 334
245 244 245 247 248 249 252 256 260 262 266 268 269 278 289 288 282 283 292 289 293 299 285 283 280 276 260 269 281 292 307 310 314 316 335 341 343 338 331 325 322 321 329 334
Height
5872 5875 5877 5876 5878 5878 5879 5881 5882 5884 5884 5883 5884 5885 5884 5885 5885 5886 5887 5886 5886 5886 5886 5884 5882 5880 5877 5876 5875 5873 5871 5868 5864 5858 5853 5848 5843 5839 5834 5829 5823 5817 5811 5805
5869 5870 5870 5872 5873 5874 5876 5877 5879 5880 5880 5880 5881 5882 5881 5881 5881 5881 5881 5880 5880 5880 5880 5880 5877 5875 5874 5873 5872 5870 5868 5864 5859 5853 5848 5842 5837 5832 5826 5821 5815 5809 5802 5795
5864 5865 5867 5868 5869 5871 5871 5872 5873 5876 5877 5876 5877 5878 5878 5878 5877 5876 5875 5874 5875 5875 5875 5874 5872 5870 5869 5868 5867 5865 5863 5858 5852 5846 5841 5836 5831 5827 5821 5814 5808 5799 5791 5782
5859 5861 5861 5862 5866 5866 5868 5869 5869 5871 5874 5874 5872 5874 5875 5874 5874 5873 5872 5870 5869 5868 5868 5866 5867 5865 5864 5862 5860 5858 5855 5850 5844 5839 5834 5828 5824 5818 5812 5804 5797 5789 5781 5772
5856 5855 5855 5860 5862 5860 5865 5862 5863 5865 5867 5868 5869 5869 5869 5870 5870 5870 5868 5867 5867 5865 5862 5861 5861 5860 5859 5856 5854 5851 5847 5843 5837 5832 5826 5820 5816 5809 5801 5793 5785 5777 5771 5762
5849 5849 5852 5855 5857 5856 5859 5860 5860 5861 5863 5864 5865 5863 5862 5864 5863 5864 5864 5864 5863 5862 5859 5857 5857 5855 5853 5850 5847 5843 5839 5835 5830 5824 5819 5815 5808 5799 5791 5784 5777 5771 5762 5752
5845 5846 5849 5851 5852 5853 5855 5854 5855 5857 5858 5859 5858 5857 5855 5856 5858 5857 5857 5858 5856 5856 5853 5851 5850 5849 5846 5841 5838 5834 5831 5828 5823 5818 5813 5807 5799 5791 5785 5778 5769 5761 5752 5742
5841 5842 5844 5845 5847 5847 5848 5849 5850 5851 5852 5852 5851 5850 5851 5851 5851 5852 5851 5849 5849 5847 5846 5844 5843 5841 5838 5833 5827 5819 5822 5820 5817 5813 5806 5799 5793 5786 5778 5769 5760 5750 5740 5731
5836 5840 5838 5840 5842 5843 5844 5844 5846 5844 5845 5846 5846 5843 5844 5845 5845 5845 5845 5843 5841 5838 5837 5837 5836 5834 5831 5824 5820 5816 5816 5814 5811 5808 5801 5794 5787 5777 5768 5759 5750 5740 5731 5720
5828 5832 5832 5834 5835 5835 5837 5840 5840 5839 5840 5840 5840 5839 5839 5839 5839 5839 5837 5836 5835 5833 5834 5833 5832 5828 5820 5816 5813 5809 5808 5807 5805 5801 5794 5786 5777 5767 5758 5750 5740 5730 5720 5707
5821 5824 5827 5828 5829 5830 5832 5833 5834 5835 5834 5834 5834 5834 5835 5837 5836 5832 5830 5830 5829 5827 5825 5825 5823 5819 5814 5807 5805 5803 5801 5801 5799 5792 5784 5775 5766 5759 5750 5741 5731 5720 5708 5696
5814 5816 5820 5822 5823 5823 5826 5827 5828 5828 5830 5829 5829 5829 5829 5829 5829 5828 5826 5823 5821 5819 5816 5814 5813 5808 5802 5799 5798 5795 5795 5791 5788 5783 5774 5766 5760 5752 5742 5731 5721 5708 5698 5689
5808 5809 5813 5815 5818 5818 5819 5821 5822 5822 5822 5824 5825 5825 5821 5822 5821 5821 5819 5817 5815 5812 5808 5805 5801 5799 5795 5793 5791 5789 5785 5781 5779 5774 5766 5759 5751 5742 5733 5722 5710 5699 5691 5684
5800 5803 5806 5811 5815 5815 5815 5816 5816 5818 5819 5818 5819 5819 5816 5814 5814 5812 5808 5805 5803 5800 5797 5795 5792 5790 5787 5784 5784 5781 5779 5774 5771 5765 5758 5751 5743 5734 5724 5712 5701 5693 5686 5680
5794 5797 5800 5802 5806 5808 5809 5811 5811 5812 5813 5812 5812 5811 5812 5809 5807 5806 5804 5800 5797 5791 5787 5784 5781 5779 5778 5777 5775 5774 5772 5767 5762 5758 5751 5743 5736 5726 5714 5701 5693 5687 5683 5678
5786 5791 5793 5795 5797 5801 5802 5803 5804 5805 5806 5805 5803 5804 5804 5803 5802 5800 5798 5794 5790 5785 5780 5776 5774 5771 5769 5769 5767 5767 5763 5758 5756 5751 5744 5738 5727 5716 5704 5693 5687 5683 5679 5674
5782 5785 5787 5787 5791 5792 5793 5794 5796 5797 5798 5798 5798 5799 5798 5797 5796 5795 5792 5788 5784 5778 5773 5770 5767 5765 5763 5762 5760 5759 5756 5753 5750 5743 5739 5730 5721 5708 5697 5688 5684 5680 5676 5672
5773 5777 5781 5782 5785 5783 5786 5787 5788 5789 5790 5792 5792 5792 5792 5791 5789 5786 5784 5782 5778 5772 5765 5762 5760 5757 5756 5754 5754 5754 5751 5745 5741 5738 5732 5725 5715 5701 5692 5686 5681 5678 5674 5670
5765 5767 5769 5770 5773 5774 5777 5780 5780 5782 5785 5785 5786 5785 5785 5783 5781 5780 5778 5775 5770 5765 5760 5756 5753 5752 5751 5749 5748 5748 5743 5738 5737 5732 5728 5721 5709 5699 5690 5684 5679 5675 5672 5670
5757 5759 5762 5762 5765 5767 5772 5773 5775 5776 5777 5779 5778 5778 5777 5775 5774 5773 5771 5768 5763 5759 5753 5746 5745 5745 5746 5745 5744 5741 5737 5736 5732 5729 5722 5717 5705 5697 5689 5684 5678 5674 5671 5668
5747 5749 5753 5756 5757 5760 5764 5767 5768 5771 5774 5770 5771 5771 5769 5768 5767 5765 5763 5761 5757 5752 5749 5743 5744 5742 5741 5741 5740 5736 5734 5733 5729 5722 5718 5711 5702 5694 5687 5682 5677 5673 5670 5666
5741 5741 5743 5746 5749 5753 5757 5758 5761 5761 5762 5763 5763 5763 5762 5761 5760 5758 5756 5754 5751 5746 5742 5740 5737 5737 5737 5737 5735 5733 5732 5727 5724 5719 5714 5707 5698 5691 5684 5680 5675 5672 5669 5666
5733 5734 5736 5739 5742 5744 5747 5750 5751 5752 5754 5755 5755 5755 5754 5754 5753 5751 5750 5748 5745 5740 5736 5734 5734 5733 5733 5732 5730 5728 5726 5723 5719 5715 5710 5703 5695 5688 5683 5679 5675 5671 5668 5665
5722 5725 5726 5730 5733 5736 5739 5741 5743 5744 5745 5745 5744 5745 5746 5746 5745 5744 5743 5740 5738 5734 5730 5729 5729 5728 5727 5726 5726 5724 5721 5719 5716 5712 5707 5699 5692 5687 5681 5678 5674 5670 5667 5663
5712 5715 5718 5721 5724 5728 5730 5733 5734 5734 5736 5737 5737 5737 5737 5737 5737 5736 5736 5733 5730 5727 5727 5726 5724 5723 5723 5723 5721 5720 5717 5715 5712 5709 5703 5695 5689 5684 5680 5676 5673 5668 5665 5661
5700 5704 5708 5711 5715 5719 5722 5723 5725 5726 5727 5729 5729 5729 5728 5728 5730 5730 5729 5727 5723 5721 5719 5718 5717 5718 5718 5718 5717 5716 5714 5711 5708 5705 5699 5692 5686 5682 5677 5673 5670 5666 5662 5658